Siemreap, Cambodia

6:48 PM +07 on May 25, 2017 (GMT +0700)
Siem Reap

Weather History for VDSR - February, 2013

Change the Weather History Date:

Monday, February 25, 2013

  Actual Average Record
Temperature  
Mean Temperature 86 °F -  
Max Temperature 95 °F - - ()
Min Temperature 78 °F - - ()
Cooling Degree Days 22    
Growing Degree Days 36 (Base 50)    
Moisture  
Dew Point 67 °F    
Average Humidity 53    
Maximum Humidity 74    
Minimum Humidity 30    
Precipitation  
Precipitation 0.00 in - - ()
Sea Level Pressure  
Sea Level Pressure 29.82 in    
Wind  
Wind Speed 6 mph ()    
Max Wind Speed 14 mph    
Max Gust Speed -    
Visibility 5.6 miles    
Events      
T = Trace of Precipitation, MM = Missing Value Source: Averaged Metar Reports

Daily Weather History Graph

Daily Weather History Graph

Search for Another Location

Airport or City:

Trip Planner

Search our weather history database for the weather conditions in past years. The results will help you decide how hot, cold, wet, or windy it might be!

Date:

Astronomy

Feb. 25, 2013 Rise Set
Actual Time 6:22 AM +07 6:12 PM +07
Civil Twilight 6:01 AM +07 6:34 PM +07
Nautical Twilight 5:36 AM +07 6:58 PM +07
Astronomical Twilight 5:11 AM +07 7:23 PM +07
Moon 5:46 PM +07 5:36 AM +07
Length of Visible Light 12h 32m
Length of Day
11h 49m
Full, 100% of the Moon is Illuminated
Feb 25
Full
Feb 26
Full
Mar 5
Last Quarter
Mar 12
New
Mar 20
First Quarter

Hourly Weather History & Observations

Time (+07) Temp. Heat Index Dew Point Humidity Pressure Visibility Wind Dir Wind Speed Gust Speed Precip Events Conditions
12:00 AM 82.4 °F 85.4 °F 68.0 °F 62% 29.86 in 5.0 mi North 1.2 mph - N/A   Scattered Clouds
7:00 AM 78.8 °F - 68.0 °F 69% 29.86 in 3.1 mi ESE 2.3 mph - N/A   Partly Cloudy
7:30 AM 80.6 °F 82.7 °F 66.2 °F 61% 29.86 in 3.1 mi ESE 5.8 mph - N/A   Partly Cloudy
8:00 AM 84.2 °F 85.6 °F 64.4 °F 51% 29.89 in 4.3 mi ESE 11.5 mph - N/A   Partly Cloudy
8:30 AM 84.2 °F 85.6 °F 64.4 °F 51% 29.89 in 4.3 mi ESE 11.5 mph - N/A   Partly Cloudy
9:00 AM 86.0 °F 87.3 °F 64.4 °F 48% 29.89 in 4.3 mi East 13.8 mph - N/A   Partly Cloudy
9:30 AM 87.8 °F 89.4 °F 64.4 °F 46% 29.89 in 5.6 mi East 12.7 mph - N/A   Partly Cloudy
10:00 AM 89.6 °F 90.1 °F 62.6 °F 40% 29.89 in 6.2 mi East 12.7 mph - N/A   Partly Cloudy
10:30 AM 89.6 °F 90.1 °F 62.6 °F 40% 29.89 in 6.2 mi East 12.7 mph - N/A   Partly Cloudy
11:00 AM 93.2 °F 94.1 °F 62.6 °F 36% 29.86 in 6.2 mi ESE 11.5 mph - N/A   Scattered Clouds
11:30 AM 93.2 °F 93.3 °F 60.8 °F 34% 29.86 in 6.2 mi ESE 9.2 mph - N/A   Scattered Clouds
12:00 PM 93.2 °F 93.3 °F 60.8 °F 34% 29.83 in 6.2 mi ESE 10.4 mph - N/A   Scattered Clouds
12:30 PM 95.0 °F 95.2 °F 60.8 °F 32% 29.83 in 6.2 mi ESE 5.8 mph - N/A   Scattered Clouds
1:00 PM 95.0 °F 94.4 °F 59.0 °F 30% 29.80 in 6.2 mi ESE 5.8 mph - N/A   Scattered Clouds
1:30 PM 93.2 °F 96.2 °F 66.2 °F 41% 29.77 in 6.2 mi SSW 8.1 mph - N/A   Scattered Clouds
2:30 PM 93.2 °F 96.2 °F 66.2 °F 41% 29.74 in 6.2 mi South 9.2 mph - N/A   Scattered Clouds
3:00 PM 93.2 °F 96.2 °F 66.2 °F 41% 29.74 in 6.2 mi SSW 8.1 mph - N/A   Scattered Clouds
3:30 PM 93.2 °F 97.7 °F 68.0 °F 44% 29.71 in 6.2 mi SSW 9.2 mph - N/A   Scattered Clouds
4:00 PM 91.4 °F 94.0 °F 66.2 °F 43% 29.71 in 6.2 mi SSW 8.1 mph - N/A   Scattered Clouds
4:30 PM 91.4 °F 95.4 °F 68.0 °F 46% 29.74 in 6.2 mi SSW 8.1 mph - N/A   Scattered Clouds
5:00 PM 89.6 °F 93.4 °F 68.0 °F 49% 29.74 in 6.2 mi SSW 9.2 mph - N/A   Scattered Clouds
6:00 PM 87.8 °F 91.4 °F 68.0 °F 52% 29.74 in 6.2 mi SSW 4.6 mph - N/A   Scattered Clouds
6:30 PM 86.0 °F 90.4 °F 69.8 °F 58% 29.77 in 5.6 mi SW 2.3 mph - N/A   Scattered Clouds
7:00 PM 84.2 °F 88.4 °F 69.8 °F 62% 29.77 in 5.6 mi Calm Calm - N/A   Scattered Clouds
7:30 PM 82.4 °F 87.2 °F 71.6 °F 70% 29.80 in 5.6 mi Calm Calm - N/A   Scattered Clouds
8:00 PM 82.4 °F 87.2 °F 71.6 °F 70% 29.80 in 5.6 mi Calm Calm - N/A   Scattered Clouds
8:30 PM 82.4 °F 87.2 °F 71.6 °F 70% 29.80 in 5.6 mi North 1.2 mph - N/A   Scattered Clouds
9:00 PM 82.4 °F 87.2 °F 71.6 °F 70% 29.83 in 5.6 mi NNE 3.5 mph - N/A   Scattered Clouds
9:30 PM 82.4 °F 87.2 °F 71.6 °F 70% 29.83 in 5.6 mi NE 3.5 mph - N/A   Scattered Clouds
10:00 PM 82.4 °F 86.3 °F 69.8 °F 66% 29.83 in 5.6 mi Variable 2.3 mph - N/A   Scattered Clouds
10:30 PM 82.4 °F 86.3 °F 69.8 °F 66% 29.83 in 5.6 mi ENE 2.3 mph - N/A   Scattered Clouds
11:00 PM 80.6 °F 84.6 °F 71.6 °F 74% 29.83 in 5.6 mi ENE 1.2 mph - N/A   Partly Cloudy
11:30 PM 80.6 °F 83.9 °F 69.8 °F 70% 29.83 in 5.6 mi Calm Calm - N/A   Partly Cloudy